CAPE
0 0 0 0 0 0 0 0 0 0 0 0 0 0 0 0 0 0 0 0 0 0 0 0 0 0 0 0 0 0 0 0 0 0 0 0 0 0 0 0 0 0 0 0
0 0 0 0 0 0 0 0 0 0 0 0 0 0 0 0 0 0 0 0 0 0 0 0 0 0 0 0 0 0 0 0 0 0 0 0 0 0 0 0 0 0 0 0
0 0 0 0 0 0 0 0 0 0 0 0 0 0 0 0 0 0 0 0 0 0 0 0 0 0 0 0 0 0 0 0 0 0 0 0 0 0 0 0 0 0 0 0
0 0 0 0 0 0 0 0 0 0 0 0 0 0 0 0 0 0 0 0 0 0 0 0 0 0 0 0 0 0 0 0 0 0 0 0 0 0 0 0 0 0 0 0
0 0 0 0 0 0 0 0 0 0 0 0 0 0 0 0 0 0 0 0 0 0 0 0 0 0 0 0 0 0 0 0 0 0 0 0 0 0 0 0 0 0 0 0
0 0 0 0 0 0 0 0 0 0 0 0 0 0 0 0 0 0 0 0 0 0 0 0 0 0 0 0 0 0 0 0 0 0 0 0 0 0 0 0 0 0 0 0
0 0 0 0 0 0 0 0 0 0 0 0 0 0 0 0 0 0 0 0 0 0 0 0 0 0 0 0 0 0 0 0 0 0 0 0 0 0 0 0 0 0 0 0
0 0 0 0 0 0 0 0 0 0 0 0 0 0 0 0 0 0 0 0 0 0 0 0 0 0 0 0 0 0 0 0 0 0 0 0 0 0 0 0 0 0 0 0
0 0 0 0 0 0 0 0 0 0 0 0 0 0 0 0 0 0 0 0 0 0 0 0 0 0 0 0 0 0 0 0 0 0 0 0 0 0 0 0 0 0 0 0
0 0 0 0 0 0 0 0 0 0 0 0 0 0 0 0 0 0 0 0 0 0 0 0 0 0 0 0 0 0 0 0 0 0 0 0 0 0 0 0 0 0 0 0
0 0 0 0 0 0 0 0 0 0 0 0 0 0 0 0 0 0 0 0 0 0 0 0 0 0 0 0 0 0 0 0 0 0 0 0 0 0 0 0 0 0 0 0
0 0 0 0 0 0 0 0 0 0 0 0 0 0 0 0 0 0 0 0 0 0 0 0 0 0 0 0 0 0 0 0 0 0 0 0 0 0 0 0 0 0 0 0
0 0 0 0 0 0 0 0 0 0 0 0 0 0 0 0 0 0 0 0 0 0 0 0 0 0 0 0 0 0 0 0 0 0 0 0 0 0 0 0 0 0 0 0
1 0 0 0 0 0 0 0 0 0 0 0 0 0 0 0 0 0 0 0 0 0 0 0 0 0 0 0 0 0 0 0 0 0 0 0 0 0 0 0 0 0 0 0
0 0 0 0 0 0 0 0 0 0 0 0 0 0 0 0 0 0 0 0 0 0 0 0 0 0 0 0 0 0 0 0 0 0 0 0 0 0 0 0 0 0 0 9
3 0 0 0 0 0 0 0 0 0 0 0 0 0 0 0 0 0 0 0 0 0 0 0 0 0 0 0 0 0 0 0 0 0 0 0 0 0 0 0 0 0 0 12
4 0 0 0 0 0 0 0 0 0 0 0 0 0 0 0 0 0 0 0 0 0 0 0 0 0 0 0 0 0 0 0 0 0 0 0 0 0 0 0 0 0 0 0
0 0 0 0 0 0 0 0 0 0 0 0 0 0 0 0 0 0 0 0 0 0 0 0 0 0 0 0 0 0 0 0 0 0 0 0 0 0 0 0 0 0 0 0
0 4 0 0 0 0 0 0 0 0 0 0 0 0 0 0 0 0 0 0 0 0 0 0 0 0 0 0 0 0 0 0 0 0 0 0 0 0 0 0 0 0 0 0
0 1 0 0 0 0 0 0 0 0 0 0 0 0 0 0 0 0 0 0 0 0 0 0 0 0 0 0 0 0 0 0 0 0 0 0 0 0 0 0 0 0 0 0
1 13 0 0 0 0 0 0 0 0 0 0 0 0 0 0 0 0 0 0 0 0 0 0 0 0 0 0 0 0 0 0 0 0 0 0 0 0 0 0 0 0 0 0
2 11 0 0 0 0 0 0 0 0 0 0 0 0 0 0 0 0 0 0 0 0 0 0 0 0 0 0 0 0 0 0 0 0 0 0 0 0 0 0 0 0 0 0
8 1 7 13 1 0 0 0 0 0 0 0 0 0 0 0 0 0 0 0 0 0 0 0 0 0 0 0 0 0 0 0 0 0 0 0 0 0 0 0 0 0 0 0
11 6 9 6 0 0 0 0 0 0 0 0 0 0 0 0 0 0 0 0 0 0 0 0 0 0 0 0 0 0 0 0 0 0 0 0 0 0 0 0 0 0 0 0
7 13 15 5 1 0 0 0 0 0 0 0 0 0 0 0 0 0 0 0 0 0 0 0 0 0 0 0 0 0 0 0 0 0 0 0 0 0 0 0 0 0 0 0
11 8 17 15 5 4 0 0 0 0 0 0 0 0 0 0 0 0 0 0 0 0 0 0 0 0 0 0 0 0 0 0 0 0 0 0 0 0 0 0 0 0 0 0
CIN
-0 -0 -0 -0 -0 -0 -0 -0 -0 -0 -0 -0 -0 -0 -0 -0 -0 -0 -0 -0 -0 -0 -0 -0 -0 -0 -0 -0 -0 -0 -0 -0 -0 -0 -0 -0 -0 -0 -0 -0 -0 -0 -0 -0
-0 -0 -0 -0 -0 -0 -0 -0 -0 -0 -0 -0 -0 -0 -0 -0 -0 -0 -0 -0 -0 -0 -0 -0 -0 -0 -0 -0 -0 -0 -0 -0 -0 -0 -0 -0 -0 -0 -0 -0 -0 -0 -0 -0
-0 -0 -0 -0 -0 -0 -0 -0 -0 -0 -0 -0 -0 -0 -0 -0 -0 -0 -0 -0 -0 -0 -0 -0 -0 -0 -0 -0 -0 -0 -0 -0 -0 -0 -0 -0 -0 -0 -0 -0 -0 -0 -0 -0
-0 -0 -0 -0 -0 -0 -0 -0 -0 -0 -0 -0 -0 -0 -0 -0 -0 -0 -0 -0 -0 -0 -0 -0 -0 -0 -0 -0 -0 -0 -0 -0 -0 -0 -0 -0 -0 -0 -0 -0 -0 -0 -0 -0
-0 -0 -0 -0 -0 -0 -0 -0 -0 -0 -0 -0 -0 -0 -0 -0 -0 -0 -0 -0 -0 -0 -0 -0 -0 -0 -0 -0 -0 -0 -0 -0 -0 -0 -0 -0 -0 -0 -0 -0 -0 -0 -0 -0
-0 -0 -0 -0 -0 -0 -0 -0 -0 -0 -0 -0 -0 -0 -0 -0 -0 -0 -0 -0 -0 -0 -0 -0 -0 -0 -0 -0 -0 -0 -0 -0 -0 -0 -0 -0 -0 -0 -0 -0 -0 -0 -0 -0
-0 -0 -0 -0 -0 -0 -0 -0 -0 -0 -0 -0 -0 -0 -0 -0 -0 -0 -0 -0 -0 -0 -0 -0 -0 -0 -0 -0 -0 -0 -0 -0 -0 -0 -0 -0 -0 -0 -0 -0 -0 -0 -0 -0
-0 -0 -0 -0 -0 -0 -0 -0 -0 -0 -0 -0 -0 -0 -0 -0 -0 -0 -0 -0 -0 -0 -0 -0 -0 -0 -0 -0 -0 -0 -0 -0 -0 -0 -0 -0 -0 -0 -0 -0 -0 -0 -0 -0
-0 -0 -0 -0 -0 -0 -0 -0 -0 -0 -0 -0 -0 -0 -0 -0 -0 -0 -0 -0 -0 -0 -0 -0 -0 -0 -0 -0 -0 -0 -0 -0 -0 -0 -0 -0 -0 -0 -0 -0 -0 -0 -0 -0
-0 -0 -0 -0 -0 -0 -0 -0 -0 -0 -0 -0 -0 -0 -0 -0 -0 -0 -0 -0 -0 -0 -0 -0 -0 -0 -0 -0 -0 -0 -0 -0 -0 -0 -0 -0 -0 -0 -0 -0 -0 -0 -0 -0
-0 -0 -0 -0 -0 -0 -0 -0 -0 -0 -0 -0 -0 -0 -0 -0 -0 -0 -0 -0 -0 -0 -0 -0 -0 -0 -0 -0 -0 -0 -0 -0 -0 -0 -0 -0 -0 -0 -0 -0 -0 -0 -0 -0
-0 -0 -0 -0 -0 -0 -0 -0 -0 -0 -0 -0 -0 -0 -0 -0 -0 -0 -0 -0 -0 -0 -0 -0 -0 -0 -0 -0 -0 -0 -0 -0 -0 -0 -0 -0 -0 -0 -0 -0 -0 -0 -0 -0
-0 -0 -0 -0 -0 -0 -0 -0 -0 -0 -0 -0 -0 -0 -0 -0 -0 -0 -0 -0 -0 -0 -0 -0 -0 -0 -0 -0 -0 -0 -0 -0 -0 -0 -0 -0 -0 -0 -0 -0 -0 -0 -0 -0
-0 -0 -0 -0 -0 -0 -0 -0 -0 -0 -0 -0 -0 -0 -0 -0 -0 -0 -0 -0 -0 -0 -0 -0 -0 -0 -0 -0 -0 -0 -0 -0 -0 -0 -0 -0 -0 -0 -0 -0 -0 -0 -0 -0
-0 -0 -0 -0 -0 -0 -0 -0 -0 -0 -0 -0 -0 -0 -0 -0 -0 -0 -0 -0 -0 -0 -0 -0 -0 -0 -0 -0 -0 -0 -0 -0 -0 -0 -0 -0 -0 -0 -0 -0 -0 -0 -0 -66
-0 -0 -0 -0 -0 -0 -0 -0 -0 -0 -0 -0 -0 -0 -0 -0 -0 -0 -0 -0 -0 -0 -0 -0 -0 -0 -0 -0 -0 -0 -0 -0 -0 -0 -0 -0 -0 -0 -0 -0 -0 -0 -0 -69
-0 -0 -0 -0 -0 -0 -0 -0 -0 -0 -0 -0 -0 -0 -0 -0 -0 -0 -0 -0 -0 -0 -0 -0 -0 -0 -0 -0 -0 -0 -0 -0 -0 -0 -0 -0 -0 -0 -0 -0 -0 -0 -0 -0
-0 -0 -0 -0 -0 -0 -0 -0 -0 -0 -0 -0 -0 -0 -0 -0 -0 -0 -0 -0 -0 -0 -0 -0 -0 -0 -0 -0 -0 -0 -0 -0 -0 -0 -0 -0 -0 -0 -0 -0 -0 -0 -0 -0
-0 -0 -0 -0 -0 -0 -0 -0 -0 -0 -0 -0 -0 -0 -0 -0 -0 -0 -0 -0 -0 -0 -0 -0 -0 -0 -0 -0 -0 -0 -0 -0 -0 -0 -0 -0 -0 -0 -0 -0 -0 -0 -0 -0
-0 -1 -0 -0 -0 -0 -0 -0 -0 -0 -0 -0 -0 -0 -0 -0 -0 -0 -0 -0 -0 -0 -0 -0 -0 -0 -0 -0 -0 -0 -0 -0 -0 -0 -0 -0 -0 -0 -0 -0 -0 -0 -0 -0
-0 -0 -0 -0 -0 -0 -0 -0 -0 -0 -0 -0 -0 -0 -0 -0 -0 -0 -0 -0 -0 -0 -0 -0 -0 -0 -0 -0 -0 -0 -0 -0 -0 -0 -0 -0 -0 -0 -0 -0 -0 -0 -0 -0
-0 -0 -0 -0 -0 -0 -0 -0 -0 -0 -0 -0 -0 -0 -0 -0 -0 -0 -0 -0 -0 -0 -0 -0 -0 -0 -0 -0 -0 -0 -0 -0 -0 -0 -0 -0 -0 -0 -0 -0 -0 -0 -0 -0
-2 -0 -0 -0 -0 -0 -0 -0 -0 -0 -0 -0 -0 -0 -0 -0 -0 -0 -0 -0 -0 -0 -0 -0 -0 -0 -0 -0 -0 -0 -0 -0 -0 -0 -0 -0 -0 -0 -0 -0 -0 -0 -0 -0
-0 -0 -0 -0 -0 -0 -0 -0 -0 -0 -0 -0 -0 -0 -0 -0 -0 -0 -0 -0 -0 -0 -0 -0 -0 -0 -0 -0 -0 -0 -0 -0 -0 -0 -0 -0 -0 -0 -0 -0 -0 -0 -0 -0
-0 -0 -0 -0 -0 -0 -0 -0 -0 -0 -0 -0 -0 -0 -0 -0 -0 -0 -0 -0 -0 -0 -0 -0 -0 -0 -0 -0 -0 -0 -0 -0 -0 -0 -0 -0 -0 -0 -0 -0 -0 -0 -0 -0
-0 -0 -0 -0 -0 -1 -0 -0 -0 -0 -0 -0 -0 -0 -0 -0 -0 -0 -0 -0 -0 -0 -0 -0 -0 -0 -0 -0 -0 -0 -0 -0 -0 -0 -0 -0 -0 -0 -0 -0 -0 -0 -0 -0
Wind_Speed
7 7 22 27 20 9 14 9 11 14 2 3 8 9 18 12 7 11 12 11 13 12 4 5 8 13 15 12 12 11 9 7 4 2 3 1 2 2 3 2 3 4 3 4
6 29 19 12 18 19 9 14 22 15 6 4 11 13 17 15 13 11 13 14 12 4 3 3 9 10 13 15 12 9 8 7 5 2 2 2 1 3 2 2 3 4 4 4
27 17 13 18 15 15 19 20 17 17 5 5 6 10 16 13 8 7 10 11 9 9 8 7 8 10 12 13 12 10 8 8 5 4 2 1 1 1 2 2 2 2 3 3
20 22 18 17 24 19 23 17 14 14 4 6 4 7 13 12 12 7 10 8 8 0 5 8 10 10 12 10 7 8 8 7 5 5 2 2 2 1 1 1 2 3 2 3
12 19 28 24 21 20 12 10 12 9 5 1 3 4 7 5 10 11 11 9 6 4 8 11 12 13 9 9 8 7 7 6 5 4 3 2 2 1 1 1 4 2 2 2
9 6 21 22 13 19 5 6 4 2 3 4 11 7 6 6 9 8 7 4 4 6 9 10 11 11 9 6 7 7 7 5 5 4 3 4 4 2 1 2 2 3 2 1
5 10 2 9 8 8 10 10 1 3 1 6 7 9 15 10 10 12 12 7 5 9 9 14 16 13 10 9 8 6 7 5 5 5 4 4 4 3 1 2 2 3 2 1
8 4 12 8 9 12 17 13 9 8 5 5 7 9 9 19 22 9 6 3 8 9 7 13 12 12 12 10 9 7 7 6 6 5 4 3 3 2 0 2 1 1 1 1
9 11 5 19 10 18 7 16 10 4 2 1 5 5 7 7 8 7 7 6 9 9 9 11 10 10 10 10 9 9 7 5 6 5 4 3 2 2 1 2 1 0 1 1
5 2 13 15 12 17 15 12 7 4 7 5 5 3 6 7 10 6 6 9 7 7 9 10 10 10 8 8 7 7 6 7 6 5 4 3 3 2 1 2 3 3 2 2
3 2 4 11 19 15 5 10 4 6 6 6 1 7 8 9 8 9 9 8 10 12 12 12 10 8 8 7 7 7 6 6 6 5 3 3 2 2 3 3 2 3 3 4
4 2 5 15 7 18 20 10 9 11 7 3 3 8 4 7 7 8 8 8 7 8 10 11 11 9 8 8 7 7 6 6 6 5 4 3 4 3 3 3 3 3 3 3
10 5 2 4 3 5 23 13 12 6 5 15 5 6 2 3 6 5 7 9 9 10 9 8 8 10 10 8 7 7 6 6 6 5 5 4 4 4 2 4 3 3 4 4
9 4 4 6 2 5 17 19 18 8 5 7 21 5 4 7 8 5 7 7 9 10 11 10 8 9 8 9 9 7 6 6 6 5 5 5 5 4 3 4 3 4 4 4
6 5 4 11 13 9 1 18 20 20 13 7 5 14 7 10 11 9 7 9 10 11 12 13 12 10 8 8 7 6 6 7 6 6 6 5 5 4 4 4 4 4 4 4
7 5 6 6 12 8 11 6 20 24 20 14 6 9 9 7 7 6 12 12 12 13 13 13 12 12 11 12 11 8 8 8 7 6 6 5 5 5 4 4 3 4 4 5
2 4 6 5 10 8 9 21 11 10 15 15 16 15 5 4 7 9 9 15 16 15 14 16 16 15 13 13 12 10 9 7 8 7 5 6 5 5 4 4 5 5 4 4
6 3 3 5 4 6 7 9 13 11 8 17 12 7 10 10 12 10 11 17 14 13 14 13 12 12 12 10 11 8 7 9 9 7 7 6 5 6 5 4 5 5 3 4
10 5 3 2 3 6 1 8 6 4 11 6 8 14 7 9 5 5 10 11 20 19 17 16 15 14 11 13 12 11 8 8 9 9 8 7 7 6 7 6 5 3 5 3
8 10 4 2 3 6 2 17 12 8 6 11 13 11 9 8 7 8 13 10 10 9 11 14 14 11 14 13 14 13 11 10 11 10 10 8 7 8 8 8 6 3 3 4
4 4 8 6 4 5 11 19 12 8 6 17 12 12 14 10 10 17 13 12 14 15 16 12 14 16 15 13 15 14 12 13 12 10 9 8 7 8 7 7 4 5 5 5
4 2 3 3 4 4 15 8 10 7 9 12 13 13 14 17 16 6 12 16 13 14 13 15 14 14 13 16 16 15 15 13 9 10 10 9 8 6 6 8 5 5 7 6
3 4 2 3 3 3 4 3 5 4 11 13 16 17 14 16 14 9 11 11 14 16 16 16 15 14 12 16 16 16 13 13 12 11 10 9 9 7 8 7 7 5 5 5
1 3 3 3 6 14 17 8 6 13 13 17 15 17 15 15 15 11 8 10 12 13 15 15 15 15 15 15 16 15 15 15 14 13 10 8 10 7 7 5 6 6 6 4
1 4 2 4 5 15 2 11 14 20 18 20 21 18 14 12 12 9 7 9 12 14 13 15 17 16 17 16 15 12 16 16 14 13 10 10 8 10 8 7 6 7 6 8
1 3 1 2 3 8 13 14 19 16 18 21 20 23 20 11 11 6 8 8 12 13 12 13 13 12 14 16 15 14 17 17 16 12 9 9 8 8 7 7 4 7 3 11
Wind_Direction
180 191 214 204 208 197 224 224 238 253 197 230 250 271 274 278 252 260 260 265 255 240 235 184 155 153 147 146 136 141 149 172 157 167 202 213 236 254 258 244 261 270 262 230
160 220 214 186 202 209 198 227 245 276 229 225 271 272 283 285 265 251 265 274 264 221 204 135 129 143 155 145 146 144 158 170 178 166 195 158 207 250 254 255 276 280 280 221
201 219 187 196 199 196 216 216 232 245 359 257 300 289 286 284 262 280 260 247 265 227 183 139 136 138 142 144 150 157 164 173 166 173 110 56 321 310 341 354 310 307 313 208
231 227 192 194 209 188 219 208 240 251 160 244 112 288 292 302 287 246 279 293 285 212 121 139 134 139 144 154 140 147 158 169 164 147 127 152 191 245 245 263 279 305 295 215
211 189 204 204 201 189 231 183 207 225 210 317 247 274 270 309 290 284 284 288 278 139 145 147 145 145 143 144 155 151 160 158 144 144 148 155 188 220 278 313 290 322 305 242
204 205 200 211 200 199 176 92 69 71 127 252 236 196 252 216 226 268 271 292 109 126 131 132 134 139 136 135 139 148 158 150 144 143 149 171 158 144 32 308 306 345 315 326
169 223 211 154 143 164 162 122 296 317 258 221 202 194 245 261 238 231 253 249 169 138 151 149 152 152 147 151 155 160 150 150 157 146 174 161 154 148 11 298 296 17 21 17
188 190 190 177 184 167 181 171 161 188 202 243 191 211 247 218 233 230 240 215 149 145 166 160 159 153 155 158 162 156 153 159 152 168 183 150 169 108 307 300 358 48 52 40
190 229 167 175 174 161 190 210 161 128 229 128 228 266 299 222 218 230 222 169 175 151 161 152 159 158 153 161 169 162 163 153 164 186 150 168 140 111 2 12 50 38 25 92
268 230 213 198 174 196 185 138 168 204 193 228 287 251 221 200 215 195 202 199 155 131 149 153 164 162 160 169 158 159 169 165 178 173 168 155 172 121 154 78 60 41 21 72
308 165 272 146 202 172 149 176 139 154 151 168 180 260 215 200 198 210 219 183 159 165 163 166 165 168 161 154 152 174 167 161 176 174 163 141 132 98 105 97 68 50 43 54
302 309 249 208 172 194 199 180 164 191 193 173 166 263 250 226 214 202 199 159 155 149 160 163 166 153 156 163 158 184 175 176 187 176 148 146 117 101 101 118 85 52 68 87
341 306 165 350 166 207 201 198 187 85 103 206 158 249 334 264 221 228 183 155 149 147 154 151 154 162 168 168 171 183 182 185 178 172 148 148 123 115 117 105 95 87 57 81
319 269 256 213 253 121 199 201 190 146 154 175 222 243 253 283 243 202 163 155 144 156 164 164 165 170 169 173 176 183 185 173 166 169 154 158 146 140 145 113 107 107 91 93
322 279 289 279 271 298 38 203 207 212 211 171 207 207 218 224 221 207 158 132 142 159 173 176 175 173 168 163 174 183 174 165 162 167 158 174 148 141 149 115 106 94 89 82
325 282 337 299 282 279 272 255 216 209 216 233 226 246 211 256 96 164 166 161 170 182 185 178 176 171 175 176 181 183 174 171 158 172 171 163 149 141 158 133 114 106 86 86
164 315 351 291 336 315 258 237 230 231 215 197 209 223 172 207 204 199 184 176 182 183 180 182 183 180 180 179 175 183 179 154 167 168 167 165 158 144 151 135 110 100 89 101
176 136 258 265 325 202 256 190 204 207 225 228 241 176 195 215 222 200 200 181 181 179 185 183 180 179 182 168 171 162 148 165 169 169 169 163 163 145 146 128 113 109 97 98
186 128 265 233 257 282 304 45 9 166 241 195 218 236 245 231 84 269 201 212 185 183 184 186 177 174 164 163 162 164 155 164 166 180 173 174 162 152 149 148 144 116 115 106
202 186 211 295 239 214 56 315 311 268 223 16 348 333 279 141 185 233 187 192 180 171 172 166 167 156 165 166 158 162 174 167 180 182 182 171 164 159 161 155 155 126 120 115
93 124 197 226 283 284 335 322 307 135 294 326 331 312 310 229 198 217 171 190 188 175 166 150 159 168 173 159 160 169 173 188 188 174 169 160 165 165 159 150 146 134 127 113
100 165 178 187 252 285 352 1 59 283 301 310 313 306 290 279 251 190 183 186 170 155 150 161 164 171 166 163 166 170 184 185 158 158 166 167 160 165 151 153 137 134 135 127
188 186 145 253 293 344 352 240 242 274 309 313 319 308 293 280 269 245 186 181 178 170 170 168 167 161 167 170 175 178 181 160 156 159 167 169 159 158 157 152 150 138 141 142
239 158 229 264 15 336 311 316 307 331 319 319 321 317 297 282 250 229 230 175 170 170 168 164 155 164 170 179 182 182 161 163 162 168 169 161 165 155 157 154 163 157 160 154
311 311 248 271 331 321 319 345 328 327 322 330 329 329 319 310 252 219 205 183 174 173 162 167 172 176 181 174 176 165 162 160 166 167 165 168 170 170 166 171 173 178 187 177
210 287 325 310 301 273 283 313 319 321 325 325 326 330 329 337 315 249 200 207 170 169 164 169 175 168 167 170 172 164 165 165 161 162 165 172 167 174 172 169 147 55 170 189